Погода в Оторме

Россия / Пензенская область     53°32′17″N   42°30′06″E
темп.,
°C
ветер,
м/с
пор.,
м/с
влажн.,
%
обл.,
%
осадки,
мм/ч
давл.,
гПа
погр.,
м
21 апреля, ср
ср2100:00+6вюв112191100 9.6 10081063
03:00+8юв122091100 13.4 1006880
06:00+9ююв10179198 0.4 1006860
09:00+9ююв81490100 0.9 1007902
12:00+11ю81282100 1.8 10081558
15:00+9ю71290100 2.7 1009791
18:00+6зюз51089100 0.8 1013711
21:00+6ююз4885100 0.8 1016412
22 апреля, чт
чт2200:00+7ю3783100 0.0 1016238
03:00+6ю4109488 0.2 1017319
06:00+5ююз499514 0.2 1018333
09:00+8юз577545 0.2 1019887
12:00+11юз585781 0.0 10201717
15:00+12зюз5756100 0.1 10201756
18:00+12ююз116177 0.0 102023
21:00+10ю2367100 0.0 102238
23 апреля, пт
пт2300:00+9ююв367299 0.0 1021113
03:00+8ююв377541 0.0 1021106
06:00+8ююв3876100 0.0 1021158
09:00+13ю5757100 0.0 1021432
12:00+15ю464725 0.0 10201958
15:00+15ююв454875 0.0 10191721
18:00+14ююв475710 0.0 1018322
21:00+10ююв397425 0.0 1017176
24 апреля, сб
сб2400:00+9ююв398762 0.6 1016278
03:00+7ююв49917 0.6 1014202
06:00+7юв5119076 0.1 1012245
09:00+12ю61069100 0.4 1010705
12:00+13ююз7962100 0.7 10081337
15:00+5зсз6891100 3.9 1009469
18:00+6з368675 1.8 1010570
21:00+6зюз2586100 2.3 1010190
25 апреля, вс
вс2500:00+5з3883100 0.4 1010191
03:00+3зюз37845 0.4 1011148
06:00+2зюз498610 0.0 1012273
09:00+6зюз69635 0.0 10131299
12:00+8зюз7949100 0.3 10132185
15:00+8зюз8105298 0.8 10131905
18:00+7зюз7105311 0.6 10141162
21:00+4зюз612729 0.6 1015574